{"data":{"norad_id":52151,"intl_designator":"2022-031B","name":"PUJIANG 2 (PJ-2)","alt_names":[],"object_type":"PAYLOAD","status":"ACTIVE","operator":null,"country":"PRC","launch_date":"2022-03-29","launch_site_code":"TAISC","launch_vehicle":null,"mission":null,"orbit_class":"UNKNOWN","rcs_meters":null,"size_class":null,"mass_kg":null,"dimensions":null,"purposes":[],"wikipedia_slug":null,"has_3d_model":false,"image_url":null,"decayed_at":null,"tle_current":{"epoch":"2026-05-25T04:55:55.187040Z","epoch_age_seconds":64049,"freshness":"FRESH","line1":"1 52151U 22031B   26145.20549985  .00001024  00000+0  10081-3 0  9991","line2":"2 52151  97.8623 330.7250 0010134 281.5585  78.4497 14.94289589226361","mean_motion":14.94289589,"eccentricity":0.0010134,"inclination_deg":97.8623,"raan_deg":330.725,"arg_perigee_deg":281.5585,"mean_anomaly_deg":78.4497,"bstar":0.00010081,"rev_number":22636,"period_min":96.366862929405,"perigee_km":577.52265770478,"apogee_km":591.63468983238,"semimajor_km":6962.7156737686,"source":"CELESTRAK","updated_at":"2026-05-25T13:37:57.647439Z"}}}